Tracking 21472 objects as of 22-Sep-2020
HD Live streaming from Space Station
objects crossing your sky now

STARLINK-1538

Track STARLINK-1538 now!
10-day predictions
STARLINK-1538 is classified as:


NORAD ID: 46071
Int'l Code: 2020-055AW
Perigee: 383.8 km
Apogee: 390.0 km
Inclination: 53.0 °
Period: 92.1 minutes
Semi major axis: 6757 km
RCS: Unknown
Launch date: August 7, 2020
Source: United States (US)
Launch site: AIR FORCE EASTERN TEST RANGE (AFETR)
aabbcc
Your satellite tracking list
Your tracking list is empty




NASA's NSSDC Master Catalog

Two Line Element Set (TLE):
1 46071U 20055AW  20266.50001157  .00008717  00000-0  10100-3 0  9993
2 46071  53.0000  64.9033 0004541  27.5697 136.3256 15.62733512  7988
Source of the keplerian elements: AFSPC